格洛纳斯-757 COSMOS 2236 [GLONASS]

导读

COSMOS 2236(宇宙2236)是独联体(CIS)继承自苏联后,于1993年2月17日发射的GLONASS(格洛纳斯)导航卫星,属于第二代改进型格洛纳斯卫星。卫星重约1400千克,采用三轴稳定设计,配备精密铯钟作为频率基准,运行于约1.91万公里高度的中圆地球轨道,为格洛纳斯全球导航系统提供定位、测速与授时服务,设计工作寿命约3年,是该系统组网建设过程中的重要卫星。

基本信息
目录编号:
22513
目录名称:
COSMOS 2236 (GLONASS)
国际标识:
1993-010B
轨道中心:
EARTH
卫星名称:
格洛纳斯-757
卫星全名:
格洛纳斯-757 COSMOS 2236 [GLONASS]
卫星状态:
在轨 (已飞行12168 天)
发射日期:
1993-02-17 UTC
国别 :
俄罗斯(独联体) (CIS)
星等 :
--
轨道信息
数据来源 国际轨道数据 AOE轨道数据
星历时间 2026-06-09T21:06:46+0800
3天前
查看轨道信息
2026-06-11T05:00:00+0800
1天前
查看轨道信息
半长轴 25507.825km 25507.801km
偏心率 0.0004825 0.0004965
轨道倾角 64.893° 64.894°
近地点辐角 59.273° 60.295°
升交点赤经 70.238° 70.192°
平近点角 114.912° 53.186°
近地点 19117.38km 19116.999km
远地点 19141.996km 19142.329km
周期 675.725分钟 675.724分钟
每日圈数 2.131045 2.131048
详细信息
平衡模式:
三轴稳定
覆盖范围:
全球
运营商:
列舍特涅夫卫星信息系统
运营商所在国:
俄罗斯
制造商(研发单位):
列舍特涅夫卫星信息系统
制造商所在国:
俄罗斯
使用方式:
暂无
卫星简介
格洛纳斯(GLONASS )是苏联/俄罗斯研制卫星导航系统。标准配置为24颗卫星,其中18颗卫星就能保证该系统为俄罗斯境内用户提供全部服务。该卫星已退役。
2D轨道图
3D轨道图
轨道高度分析图
轨道倾角分析图
轨道综合分析图
查看轨道综合分析图